Powrót do katalogu

FENGYUN 1C DEB

AktywnySSO
NORAD 29896·DEBRIS·🇨🇳 China

Wystrzelony May 10, 1999 z Taiyuan Satellite Launch Center

Loading…

Następne Przeloty (najbliższe 24 godziny)

TLE

ŚwieżeSource: Space-Track

Epoka: Sep 13, 2026, 15:19 UTC

1 29896U 99025GS  26256.63829449  .00000326  00000-0  36884-3 0  9998
2 29896  99.3927 145.4639 0239410 113.6630 315.9953 13.65620814977943

Śledź FENGYUN 1C DEB w czasie rzeczywistym z AllMySat

Download on the App Store